DECAYED

STARLINK-1143, 45179 (Decayed)

Orbit data source: Space-Track

STARLINK-1143, 45179 was a payload satellite owned by SpaceX/Seattle (US) in LEO that was launched on Mon, 17 Feb 2020 UTC via an FALCON 9 launch vehicle from the Air Force Eastern Test Range (AFETR). Payload-class satellites include a variety of spacecraft equipped with specific instruments for various scientific and technological missions. These include communications satellites like Starlink; space stations such as the ISS; scientific satellites like the Hubble; Earth observation satellites from companies like Planet Labs, Umbra, and HawkEye 360; GPS; miniature CubeSats for education and research; and military/defense satellites.

Not visible in the next 10 days
Identifier
45179, 2020-012B
Orbit
Decayed
Country
Flag of USUS
Related business
Manufacturer
SpaceX/Seattle
Mission
Decayed Commercial Communications
Bus & Motor
STARLINK, Unknown motor
Mass
260 kg wet, ~248 kg dry
Launch date (UTC)
2020-02-17 (7 years ago)
Launch vehicle
FALCON 9
Launch site
Air Force Eastern Test Range (AFETR)
Object type
Payload
Rocket body
Debris
Shape & HBR
Box + 1 Pan, 10.1 m
Radar Cross Section
13.562 m², Large (>1 m²)

Expand to show TLE details & history
Last TLE update: 2 months ago

TLE from 2 months ago
0 STARLINK-1143
1 45179U 20012B   26205.17912638  .07565997  12514-4  31863-3 0  9992
2 45179  53.0139   0.0751 0010781 297.1896  62.8052 16.42696611357562
Epoch: 2026-07-24T04:17Z
TLE epoch observation values (Epoch: 2026-07-24T04:17:56.519Z)
Latitude
Longitude
-6.31987°
Altitude
156.351 km
Speed
7.816 km/s
True Right ascension
00h 00m 18s
True Declination
0° 00' 00"
Sunlit
Object was in full shadow at epoch
Visualization orbit readout
Latitude
Unknown
Longitude
Unknown
Altitude
Unknown
Speed
Unknown
Apparent Right ascension
Unknown
Apparent Declination
Unknown
Sunlit
N/A
Visualization observer readout
Local Sidereal Time
01:38:08
Azimuth
Unknown
Elevation
Unknown
Doppler factor
Unknown
Orbital elements
Apogee altitude
165.98 km
Perigee altitude
151.885 km
Semi-major axis
6,537.069 km
Eccentricity
0.00108
Inclination
53.0139°
RAAN
0.0751°
Arg. of periapsis
297.1896°
True anomaly
62.91515°
Mean anomaly
62.8052°
Eccentric anomaly
62.86017°
Mean motion
4.10647 °/min
Orbital period
87.67 mins
BSTAR
0.00031863
Loading maneuver chart data...
Computing Atmospheric mass density...

Documentation

Showing up to 5 results
|